When you browse on this site, cookies collect data to enhance your experience and personalize the content and advertising you see.
Visit our Privacy Policy to learn more. By continuing to use the site, you agree to this use of cookies and data.
  • In Switzerland
  • List of Countries
  • For 7 days
  • Water Temperature
  • Satellite Maps
  • Weather Map
  • Weather Widgets
  • user-avatar
    Login

    Hourly Weather Kuzaj

    Today, 22 May, Wednesday

    Time Temperature Precipitation Wind Pressure Humidity
    00:00 +15°C° 0 mm 2 mps 738 mmHg 95%
    01:00 +13°C° 0 mm 3 mps 738 mmHg 96%
    02:00 +13°C° 0 mm 2 mps 738 mmHg 96%
    03:00 +13°C° 0 mm 2 mps 738 mmHg 96%
    04:00 +12°C° 0 mm 2 mps 738 mmHg 96%
    05:00 +13°C° 0 mm 2 mps 738 mmHg 93%
    06:00 +13°C° 0 mm 3 mps 738 mmHg 90%
    07:00 +14°C° 0 mm 4 mps 739 mmHg 86%
    08:00 +15°C° 0 mm 4 mps 739 mmHg 81%
    09:00 +16°C° 0 mm 5 mps 739 mmHg 76%
    10:00 +17°C° 0 mm 5 mps 740 mmHg 71%
    11:00 +19°C° 0.3 mm 5 mps 740 mmHg 70%
    12:00 +20°C° 0.3 mm 5 mps 740 mmHg 68%
    13:00 +20°C° 0.3 mm 5 mps 740 mmHg 66%
    14:00 +20°C° 0.9 mm 5 mps 740 mmHg 70%
    15:00 +19°C° 0.9 mm 6 mps 740 mmHg 74%
    16:00 +19°C° 0.9 mm 6 mps 741 mmHg 78%
    17:00 +17°C° 1 mm 6 mps 741 mmHg 82%
    18:00 +16°C° 1 mm 7 mps 741 mmHg 86%
    19:00 +15°C° 1 mm 7 mps 742 mmHg 90%
    20:00 +15°C° 0.5 mm 7 mps 742 mmHg 92%
    21:00 +13°C° 0.5 mm 8 mps 742 mmHg 93%
    22:00 +13°C° 0.5 mm 8 mps 743 mmHg 94%
    23:00 +13°C° 0.2 mm 8 mps 743 mmHg 94%

    Tomorrow, 23 May, Thursday

    Time Temperature Precipitation Wind Pressure Humidity
    00:00 +12°C° 0.2 mm 7 mps 743 mmHg 94%
    01:00 +12°C° 0.2 mm 7 mps 744 mmHg 94%
    02:00 +12°C° 0.1 mm 7 mps 744 mmHg 94%
    03:00 +11°C° 0.1 mm 7 mps 744 mmHg 94%
    04:00 +11°C° 0.1 mm 7 mps 744 mmHg 94%
    05:00 +11°C° 0.1 mm 7 mps 745 mmHg 94%
    06:00 +11°C° 0.1 mm 7 mps 745 mmHg 94%
    07:00 +11°C° 0.1 mm 7 mps 745 mmHg 93%
    08:00 +11°C° 0.1 mm 7 mps 746 mmHg 92%
    09:00 +11°C° 0.1 mm 7 mps 746 mmHg 91%
    10:00 +11°C° 0.1 mm 7 mps 746 mmHg 90%
    11:00 +12°C° 0 mm 7 mps 747 mmHg 88%
    12:00 +12°C° 0 mm 7 mps 747 mmHg 86%
    13:00 +12°C° 0 mm 7 mps 747 mmHg 84%
    14:00 +14°C° 0 mm 6 mps 747 mmHg 82%
    15:00 +14°C° 0 mm 5 mps 747 mmHg 80%
    16:00 +15°C° 0 mm 4 mps 747 mmHg 78%
    17:00 +15°C° 0 mm 4 mps 747 mmHg 78%
    18:00 +14°C° 0 mm 4 mps 747 mmHg 78%
    19:00 +14°C° 0 mm 3 mps 747 mmHg 78%
    20:00 +14°C° 0 mm 3 mps 747 mmHg 75%
    21:00 +14°C° 0 mm 4 mps 748 mmHg 71%
    22:00 +13°C° 0 mm 4 mps 748 mmHg 68%
    23:00 +12°C° 0 mm 4 mps 748 mmHg 66%

    Day after tomorrow, 24 May, Friday

    Time Temperature Precipitation Wind Pressure Humidity
    00:00 +12°C° 0 mm 4 mps 748 mmHg 64%
    01:00 +11°C° 0 mm 3 mps 748 mmHg 62%
    02:00 +10°C° 0 mm 3 mps 748 mmHg 66%
    03:00 +9°C° 0 mm 3 mps 748 mmHg 71%
    04:00 +7°C° 0 mm 3 mps 747 mmHg 76%
    05:00 +9°C° 0 mm 3 mps 747 mmHg 75%
    06:00 +10°C° 0 mm 3 mps 748 mmHg 75%
    07:00 +12°C° 0 mm 3 mps 748 mmHg 75%
    08:00 +13°C° 0 mm 3 mps 748 mmHg 69%
    09:00 +16°C° 0 mm 3 mps 747 mmHg 64%
    10:00 +18°C° 0 mm 3 mps 747 mmHg 58%
    11:00 +19°C° 0 mm 3 mps 747 mmHg 57%
    12:00 +19°C° 0 mm 4 mps 747 mmHg 55%
    13:00 +20°C° 0 mm 4 mps 746 mmHg 53%
    14:00 +20°C° 0 mm 3 mps 746 mmHg 55%
    15:00 +20°C° 0 mm 3 mps 746 mmHg 56%
    16:00 +20°C° 0 mm 3 mps 745 mmHg 57%
    17:00 +19°C° 0 mm 2 mps 745 mmHg 63%
    18:00 +18°C° 0 mm 2 mps 745 mmHg 69%
    19:00 +18°C° 0 mm 1 mps 745 mmHg 75%
    20:00 +16°C° 0 mm 1 mps 745 mmHg 78%
    21:00 +15°C° 0 mm 1 mps 745 mmHg 81%
    22:00 +13°C° 0 mm 0 mps 745 mmHg 84%
    23:00 +14°C° 0 mm 1 mps 745 mmHg 85%

    25 May, Saturday

    Time Temperature Precipitation Wind Pressure Humidity
    00:00 +13°C° 0 mm 1 mps 745 mmHg 85%
    01:00 +13°C° 0 mm 2 mps 745 mmHg 86%
    02:00 +13°C° 0 mm 2 mps 745 mmHg 87%
    03:00 +12°C° 0 mm 2 mps 745 mmHg 88%
    04:00 +12°C° 0 mm 2 mps 745 mmHg 89%
    05:00 +12°C° 0 mm 3 mps 745 mmHg 85%
    06:00 +13°C° 0 mm 3 mps 745 mmHg 81%
    07:00 +16°C° 0 mm 3 mps 745 mmHg 77%
    08:00 +17°C° 0.1 mm 3 mps 745 mmHg 73%
    09:00 +19°C° 0.1 mm 4 mps 745 mmHg 68%
    10:00 +20°C° 0.1 mm 4 mps 745 mmHg 64%
    11:00 +20°C° 0.2 mm 4 mps 745 mmHg 65%
    12:00 +20°C° 0.2 mm 4 mps 745 mmHg 66%
    13:00 +20°C° 0.2 mm 5 mps 745 mmHg 67%
    14:00 +20°C° 0.1 mm 4 mps 744 mmHg 66%
    15:00 +20°C° 0.1 mm 4 mps 744 mmHg 66%
    16:00 +20°C° 0.1 mm 4 mps 744 mmHg 66%
    17:00 +19°C° 0 mm 3 mps 744 mmHg 68%
    18:00 +18°C° 0 mm 3 mps 744 mmHg 70%
    19:00 +17°C° 0 mm 2 mps 744 mmHg 72%
    20:00 +15°C° 0 mm 2 mps 745 mmHg 78%
    21:00 +14°C° 0 mm 2 mps 745 mmHg 83%
    22:00 +12°C° 0 mm 2 mps 745 mmHg 88%
    23:00 +12°C° 0 mm 2 mps 745 mmHg 89%

    26 May, Sunday

    Time Temperature Precipitation Wind Pressure Humidity
    00:00 +10°C° 0 mm 2 mps 745 mmHg 90%
    01:00 +10°C° 0 mm 1 mps 745 mmHg 91%
    02:00 +9°C° 0 mm 2 mps 745 mmHg 92%
    03:00 +9°C° 0 mm 2 mps 745 mmHg 92%
    04:00 +9°C° 0 mm 3 mps 745 mmHg 93%
    05:00 +10°C° 0 mm 3 mps 745 mmHg 87%
    06:00 +11°C° 0 mm 4 mps 745 mmHg 82%
    07:00 +13°C° 0 mm 5 mps 745 mmHg 76%
    08:00 +13°C° 0 mm 5 mps 745 mmHg 72%
    09:00 +14°C° 0 mm 6 mps 744 mmHg 69%
    10:00 +15°C° 0 mm 6 mps 744 mmHg 66%
    11:00 +15°C° 0 mm 6 mps 744 mmHg 64%
    12:00 +15°C° 0 mm 7 mps 744 mmHg 61%
    13:00 +15°C° 0 mm 7 mps 744 mmHg 59%
    14:00 +15°C° 0 mm 7 mps 744 mmHg 58%
    15:00 +15°C° 0 mm 7 mps 744 mmHg 58%
    16:00 +16°C° 0 mm 8 mps 744 mmHg 57%
    17:00 +15°C° 0 mm 6 mps 744 mmHg 62%
    18:00 +14°C° 0 mm 5 mps 744 mmHg 68%
    19:00 +12°C° 0 mm 4 mps 744 mmHg 73%
    20:00 +11°C° 0 mm 4 mps 744 mmHg 77%
    21:00 +10°C° 0 mm 3 mps 745 mmHg 80%
    22:00 +9°C° 0 mm 3 mps 745 mmHg 83%
    23:00 +8°C° 0 mm 3 mps 745 mmHg 87%

    27 May, Monday

    Time Temperature Precipitation Wind Pressure Humidity
    00:00 +8°C° 0 mm 3 mps 745 mmHg 90%
    01:00 +7°C° 0 mm 3 mps 745 mmHg 94%
    02:00 +7°C° 0 mm 3 mps 745 mmHg 95%
    03:00 +7°C° 0 mm 3 mps 745 mmHg 96%
    04:00 +7°C° 0 mm 3 mps 745 mmHg 96%
    05:00 +8°C° 0 mm 3 mps 745 mmHg 90%
    06:00 +10°C° 0 mm 3 mps 745 mmHg 83%
    07:00 +11°C° 0 mm 3 mps 745 mmHg 76%
    08:00 +13°C° 0 mm 3 mps 745 mmHg 72%
    09:00 +14°C° 0 mm 3 mps 745 mmHg 69%
    10:00 +17°C° 0 mm 3 mps 745 mmHg 66%
    11:00 +18°C° 0 mm 3 mps 744 mmHg 64%
    12:00 +19°C° 0 mm 3 mps 744 mmHg 62%
    13:00 +20°C° 0 mm 3 mps 743 mmHg 60%
    14:00 +20°C° 0 mm 3 mps 743 mmHg 60%
    15:00 +21°C° 0 mm 3 mps 742 mmHg 59%
    16:00 +22°C° 0 mm 3 mps 742 mmHg 58%
    17:00 +21°C° 0 mm 3 mps 741 mmHg 64%
    18:00 +20°C° 0 mm 3 mps 741 mmHg 70%
    19:00 +19°C° 0 mm 2 mps 741 mmHg 75%
    20:00 +18°C° 0 mm 3 mps 741 mmHg 78%
    21:00 +17°C° 0 mm 3 mps 741 mmHg 81%
    22:00 +16°C° 0 mm 3 mps 740 mmHg 84%
    23:00 +15°C° 0.1 mm 2 mps 740 mmHg 86%
    Show more